SAA333 FAOR-FACT

Flight info

Callsign SAA333
Flight time 1h 54m
Altitude 36000
Route RAGUL3B RAGUL DCT UTEBA DCT APMIN DCT EVESI DCT EGNOM DCT NOKOX DCT ERDAS ERDAS1B
Aircraft A343/H-SDE2E3FGHIJ4J5M1RWXY/LB1D1

Departure

Time 2026-05-07 13:41
Airport O.R. Tambo International Airport (FAOR)

Arrival

Time 2026-05-07 15:36
Airport Cape Town International Airport (FACT)
Time Latitude Longitude Altitude Speed Heading
2026-05-07 13:09 -26.13042 28.23540 5554 ft 0 kts
2026-05-07 13:30 -26.13047 28.23539 5555 ft 0 kts
2026-05-07 13:31 -26.13072 28.23536 5555 ft 0 kts
2026-05-07 13:31 -26.13098 28.23532 5557 ft 0 kts
2026-05-07 13:31 -26.13117 28.23530 5556 ft 0 kts
2026-05-07 13:34 -26.13111 28.23532 5556 ft 1 kts 30°
2026-05-07 13:34 -26.13107 28.23567 5557 ft 11 kts 102°
2026-05-07 13:35 -26.13120 28.23673 5557 ft 17 kts 70°
2026-05-07 13:35 -26.13004 28.23742 5554 ft 21 kts 17°
2026-05-07 13:35 -26.12885 28.23777 5553 ft 17 kts 15°
2026-05-07 13:35 -26.12759 28.23816 5551 ft 19 kts 15°
2026-05-07 13:36 -26.12626 28.23857 5550 ft 20 kts 15°
2026-05-07 13:36 -26.12499 28.23897 5549 ft 19 kts 15°
2026-05-07 13:36 -26.12416 28.23922 5548 ft 18 kts 15°
2026-05-07 13:36 -26.12290 28.23961 5547 ft 20 kts 16°
2026-05-07 13:37 -26.12147 28.24007 5544 ft 22 kts 16°
2026-05-07 13:37 -26.11993 28.24053 5544 ft 24 kts 15°
2026-05-07 13:37 -26.11768 28.24123 5533 ft 26 kts 16°
2026-05-07 13:37 -26.11599 28.24176 5533 ft 22 kts 15°
2026-05-07 13:38 -26.11500 28.24207 5531 ft 23 kts 15°
2026-05-07 13:38 -26.11344 28.24255 5531 ft 23 kts 15°
2026-05-07 13:38 -26.11241 28.24287 5528 ft 14 kts 15°
2026-05-07 13:38 -26.11136 28.24319 5524 ft 17 kts 15°
2026-05-07 13:39 -26.11012 28.24356 5522 ft 17 kts 15°
2026-05-07 13:39 -26.10910 28.24423 5519 ft 11 kts 55°
2026-05-07 13:39 -26.10865 28.24512 5516 ft 14 kts 61°
2026-05-07 13:39 -26.10863 28.24580 5516 ft 6 kts 136°
2026-05-07 13:40 -26.10902 28.24593 5517 ft 5 kts 188°
2026-05-07 13:40 -26.10936 28.24583 5508 ft 4 kts 196°
2026-05-07 13:40 -26.10993 28.24564 5520 ft 30 kts 195°
2026-05-07 13:40 -26.11433 28.24427 5533 ft 99 kts 195°
2026-05-07 13:41 -26.12304 28.24158 5545 ft 158 kts 195°
2026-05-07 13:41 -26.13518 28.23782 5636 ft 199 kts 197°
2026-05-07 13:41 -26.14878 28.23340 6465 ft 203 kts 198°
2026-05-07 13:41 -26.16258 28.22980 7332 ft 209 kts 195°
2026-05-07 13:42 -26.17734 28.22625 7949 ft 225 kts 196°
2026-05-07 13:42 -26.19304 28.22228 8481 ft 245 kts 197°
2026-05-07 13:42 -26.21048 28.21768 9085 ft 264 kts 197°
2026-05-07 13:42 -26.22857 28.21284 9774 ft 271 kts 197°
2026-05-07 13:43 -26.24712 28.20781 10439 ft 276 kts 198°
2026-05-07 13:43 -26.26632 28.20257 10869 ft 291 kts 198°
2026-05-07 13:43 -26.28659 28.19697 11235 ft 309 kts 198°
2026-05-07 13:43 -26.30801 28.19083 11586 ft 326 kts 201°
2026-05-07 13:44 -26.32831 28.17880 11865 ft 338 kts 222°
2026-05-07 13:44 -26.34371 28.15838 12146 ft 352 kts 242°
2026-05-07 13:44 -26.35141 28.13211 12589 ft 362 kts 263°
2026-05-07 13:44 -26.35156 28.10387 13434 ft 363 kts 271°
2026-05-07 13:45 -26.35108 28.07580 14362 ft 363 kts 270°
2026-05-07 13:45 -26.35069 28.04744 15064 ft 365 kts 270°
2026-05-07 13:45 -26.35030 28.01898 15786 ft 368 kts 271°
2026-05-07 13:45 -26.34989 27.99027 16520 ft 370 kts 271°
2026-05-07 13:46 -26.34947 27.96145 17236 ft 372 kts 271°
2026-05-07 13:46 -26.34904 27.93246 17940 ft 375 kts 271°
2026-05-07 13:46 -26.34859 27.90311 18607 ft 377 kts 271°
2026-05-07 13:46 -26.34813 27.87365 19182 ft 380 kts 271°
2026-05-07 13:47 -26.34767 27.84406 19739 ft 383 kts 271°
2026-05-07 13:47 -26.34724 27.81420 20313 ft 386 kts 270°
2026-05-07 13:47 -26.35063 27.78443 20902 ft 390 kts 257°
2026-05-07 13:47 -26.36098 27.75617 21572 ft 395 kts 246°
2026-05-07 13:48 -26.37455 27.72929 22109 ft 401 kts 244°
2026-05-07 13:48 -26.38801 27.70339 22554 ft 405 kts 244°
2026-05-07 13:48 -26.40271 27.67417 23108 ft 410 kts 245°
2026-05-07 13:48 -26.41637 27.64617 23675 ft 413 kts 245°
2026-05-07 13:49 -26.43003 27.61826 24125 ft 417 kts 244°
2026-05-07 13:49 -26.44591 27.59094 24627 ft 421 kts 239°
2026-05-07 13:49 -26.46443 27.56467 25128 ft 427 kts 234°
2026-05-07 13:49 -26.48466 27.54075 25616 ft 432 kts 231°
2026-05-07 13:50 -26.50637 27.51720 26074 ft 435 kts 230°
2026-05-07 13:50 -26.52829 27.49376 26500 ft 438 kts 230°
2026-05-07 13:50 -26.55045 27.47013 26949 ft 441 kts 230°
2026-05-07 13:50 -26.57278 27.44631 27391 ft 444 kts 230°
2026-05-07 13:51 -26.59517 27.42239 27828 ft 446 kts 230°
2026-05-07 13:51 -26.61764 27.39836 28288 ft 448 kts 231°
2026-05-07 13:51 -26.64020 27.37421 28881 ft 446 kts 231°
2026-05-07 13:51 -26.66252 27.35034 29604 ft 442 kts 231°
2026-05-07 13:52 -26.68473 27.32658 30320 ft 439 kts 231°
2026-05-07 13:52 -26.70669 27.30302 30882 ft 437 kts 231°
2026-05-07 13:52 -26.72861 27.27947 31380 ft 435 kts 231°
2026-05-07 13:52 -26.75040 27.25603 31869 ft 434 kts 231°
2026-05-07 13:53 -26.77220 27.23258 32361 ft 433 kts 232°
2026-05-07 13:53 -26.79367 27.20947 32849 ft 432 kts 232°
2026-05-07 13:53 -26.81537 27.18611 33340 ft 431 kts 232°
2026-05-07 13:53 -26.83694 27.16288 33812 ft 430 kts 232°
2026-05-07 13:54 -26.85862 27.13951 34250 ft 429 kts 232°
2026-05-07 13:54 -26.88019 27.11624 34634 ft 429 kts 232°
2026-05-07 13:54 -26.90168 27.09303 34999 ft 429 kts 232°
2026-05-07 13:54 -26.92310 27.06989 35356 ft 428 kts 232°
2026-05-07 13:55 -26.94457 27.04670 35704 ft 428 kts 232°
2026-05-07 13:55 -26.96599 27.02345 36040 ft 428 kts 232°
2026-05-07 13:55 -26.98727 27.00010 36114 ft 428 kts 232°
2026-05-07 13:56 -27.02977 26.95328 36122 ft 428 kts 232°
2026-05-07 13:56 -27.07202 26.90668 36124 ft 428 kts 232°
2026-05-07 13:57 -27.11446 26.85984 36122 ft 428 kts 232°
2026-05-07 13:57 -27.15691 26.81294 36127 ft 428 kts 232°
2026-05-07 13:58 -27.19937 26.76596 36128 ft 428 kts 232°
2026-05-07 13:58 -27.24185 26.71893 36124 ft 428 kts 232°
2026-05-07 13:59 -27.28437 26.67178 36122 ft 428 kts 232°
2026-05-07 13:59 -27.32678 26.62472 36115 ft 428 kts 232°
2026-05-07 14:00 -27.36919 26.57759 36118 ft 428 kts 232°
2026-05-07 14:00 -27.41158 26.53044 36119 ft 429 kts 232°
2026-05-07 14:01 -27.45402 26.48317 36118 ft 429 kts 232°
2026-05-07 14:01 -27.49648 26.43584 36117 ft 429 kts 232°
2026-05-07 14:02 -27.53868 26.38874 36113 ft 429 kts 232°
2026-05-07 14:02 -27.58114 26.34129 36107 ft 429 kts 231°
2026-05-07 14:03 -27.62357 26.29381 36111 ft 429 kts 231°
2026-05-07 14:03 -27.66599 26.24631 36112 ft 429 kts 231°
2026-05-07 14:04 -27.70839 26.19876 36113 ft 429 kts 231°
2026-05-07 14:04 -27.75078 26.15115 36110 ft 429 kts 231°
2026-05-07 14:05 -27.79313 26.10354 36111 ft 429 kts 231°
2026-05-07 14:05 -27.83555 26.05580 36113 ft 429 kts 231°
2026-05-07 14:06 -27.87786 26.00813 36110 ft 429 kts 231°
2026-05-07 14:06 -27.92018 25.96037 36110 ft 429 kts 231°
2026-05-07 14:07 -27.96216 25.91293 36109 ft 429 kts 231°
2026-05-07 14:07 -28.00445 25.86510 36108 ft 429 kts 231°
2026-05-07 14:08 -28.04677 25.81723 36113 ft 429 kts 231°
2026-05-07 14:08 -28.08934 25.76903 36115 ft 429 kts 231°
2026-05-07 14:09 -28.13168 25.72098 36117 ft 429 kts 231°
2026-05-07 14:09 -28.17395 25.67296 36120 ft 430 kts 231°
2026-05-07 14:10 -28.21614 25.62494 36120 ft 430 kts 231°
2026-05-07 14:10 -28.25831 25.57691 36118 ft 430 kts 231°
2026-05-07 14:11 -28.30027 25.52906 36117 ft 430 kts 231°
2026-05-07 14:11 -28.34252 25.48081 36118 ft 430 kts 231°
2026-05-07 14:12 -28.38476 25.43251 36119 ft 430 kts 230°
2026-05-07 14:12 -28.42694 25.38422 36122 ft 430 kts 230°
2026-05-07 14:13 -28.46919 25.33580 36122 ft 430 kts 230°
2026-05-07 14:13 -28.51123 25.28754 36122 ft 430 kts 230°
2026-05-07 14:14 -28.55344 25.23902 36124 ft 430 kts 230°
2026-05-07 14:14 -28.59558 25.19053 36119 ft 430 kts 230°
2026-05-07 14:15 -28.63783 25.14195 36121 ft 430 kts 230°
2026-05-07 14:15 -28.68007 25.09331 36122 ft 430 kts 230°
2026-05-07 14:16 -28.72214 25.04477 36126 ft 430 kts 230°
2026-05-07 14:16 -28.76407 24.99633 36125 ft 430 kts 230°
2026-05-07 14:17 -28.80648 24.94725 36125 ft 430 kts 230°
2026-05-07 14:17 -28.84853 24.89853 36130 ft 430 kts 230°
2026-05-07 14:18 -28.89058 24.84976 36128 ft 430 kts 230°
2026-05-07 14:18 -28.93257 24.80098 36127 ft 430 kts 230°
2026-05-07 14:19 -28.97460 24.75211 36129 ft 430 kts 230°
2026-05-07 14:19 -29.01627 24.70359 36131 ft 430 kts 230°
2026-05-07 14:20 -29.05835 24.65454 36120 ft 430 kts 230°
2026-05-07 14:20 -29.10024 24.60564 36126 ft 430 kts 230°
2026-05-07 14:21 -29.14211 24.55671 36129 ft 430 kts 230°
2026-05-07 14:21 -29.17696 24.51594 36128 ft 429 kts 230°
2026-05-07 14:22 -29.22557 24.45900 36128 ft 429 kts 230°
2026-05-07 14:22 -29.26052 24.41802 36128 ft 429 kts 230°
2026-05-07 14:23 -29.30262 24.36858 36129 ft 429 kts 230°
2026-05-07 14:23 -29.34446 24.31939 36135 ft 428 kts 230°
2026-05-07 14:24 -29.38637 24.27005 36131 ft 428 kts 230°
2026-05-07 14:24 -29.42792 24.22108 36127 ft 428 kts 230°
2026-05-07 14:25 -29.46950 24.17200 36128 ft 428 kts 230°
2026-05-07 14:25 -29.51109 24.12287 36130 ft 427 kts 230°
2026-05-07 14:26 -29.55227 24.07414 36126 ft 427 kts 230°
2026-05-07 14:26 -29.59367 24.02510 36126 ft 427 kts 230°
2026-05-07 14:27 -29.63518 23.97587 36122 ft 425 kts 230°
2026-05-07 14:27 -29.67577 23.92772 36125 ft 415 kts 230°
2026-05-07 14:28 -29.71596 23.87991 36120 ft 415 kts 230°
2026-05-07 14:28 -29.75603 23.83219 36124 ft 414 kts 230°
2026-05-07 14:29 -29.79586 23.78470 36120 ft 414 kts 230°
2026-05-07 14:29 -29.83596 23.73684 36123 ft 414 kts 230°
2026-05-07 14:30 -29.87599 23.68902 36124 ft 414 kts 230°
2026-05-07 14:30 -29.91605 23.64109 36122 ft 414 kts 230°
2026-05-07 14:31 -29.95603 23.59319 36108 ft 414 kts 230°
2026-05-07 14:31 -29.99575 23.54557 36107 ft 414 kts 230°
2026-05-07 14:32 -30.03570 23.49760 36124 ft 414 kts 230°
2026-05-07 14:32 -30.07569 23.44951 36112 ft 414 kts 230°
2026-05-07 14:33 -30.11535 23.40178 36111 ft 414 kts 230°
2026-05-07 14:33 -30.15522 23.35371 36112 ft 414 kts 230°
2026-05-07 14:34 -30.19530 23.30534 36112 ft 414 kts 230°
2026-05-07 14:34 -30.23514 23.25720 36112 ft 413 kts 230°
2026-05-07 14:35 -30.27493 23.20907 36113 ft 413 kts 230°
2026-05-07 14:35 -30.31466 23.16094 36109 ft 413 kts 230°
2026-05-07 14:36 -30.35438 23.11277 36110 ft 413 kts 230°
2026-05-07 14:36 -30.39412 23.06451 36110 ft 413 kts 230°
2026-05-07 14:37 -30.43378 23.01628 36107 ft 413 kts 230°
2026-05-07 14:37 -30.49325 22.94385 36108 ft 413 kts 230°
2026-05-07 14:38 -30.53349 22.89477 36102 ft 413 kts 230°
2026-05-07 14:38 -30.57353 22.84585 35835 ft 413 kts 230°
2026-05-07 14:39 -30.59330 22.82168 35586 ft 413 kts 230°
2026-05-07 14:39 -30.61309 22.79746 35344 ft 413 kts 230°
2026-05-07 14:39 -30.63290 22.77321 35107 ft 413 kts 230°
2026-05-07 14:39 -30.65244 22.74927 34870 ft 412 kts 230°
2026-05-07 14:40 -30.67221 22.72505 34643 ft 412 kts 230°
2026-05-07 14:40 -30.69196 22.70082 34422 ft 412 kts 230°
2026-05-07 14:40 -30.71172 22.67657 34182 ft 412 kts 230°
2026-05-07 14:40 -30.73147 22.65230 33915 ft 413 kts 230°
2026-05-07 14:41 -30.75121 22.62804 33649 ft 413 kts 230°
2026-05-07 14:41 -30.77097 22.60374 33381 ft 413 kts 230°
2026-05-07 14:41 -30.79078 22.57937 33104 ft 414 kts 230°
2026-05-07 14:41 -30.81056 22.55501 32839 ft 414 kts 230°
2026-05-07 14:42 -30.83039 22.53055 32587 ft 415 kts 230°
2026-05-07 14:42 -30.85002 22.50634 32341 ft 415 kts 230°
2026-05-07 14:42 -30.86983 22.48189 32083 ft 415 kts 229°
2026-05-07 14:42 -30.88971 22.45734 31827 ft 416 kts 229°
2026-05-07 14:43 -30.90960 22.43277 31580 ft 417 kts 229°
2026-05-07 14:43 -30.92949 22.40815 31326 ft 417 kts 229°
2026-05-07 14:43 -30.94942 22.38344 31085 ft 417 kts 229°
2026-05-07 14:43 -30.96928 22.35880 30840 ft 418 kts 229°
2026-05-07 14:44 -30.98925 22.33399 30598 ft 418 kts 229°
2026-05-07 14:44 -31.00921 22.30916 30358 ft 419 kts 229°
2026-05-07 14:44 -31.02913 22.28438 30102 ft 419 kts 229°
2026-05-07 14:44 -31.04917 22.25942 29829 ft 420 kts 229°
2026-05-07 14:45 -31.06916 22.23451 29540 ft 421 kts 229°
2026-05-07 14:45 -31.08904 22.20972 29262 ft 422 kts 229°
2026-05-07 14:45 -31.10911 22.18467 29021 ft 423 kts 229°
2026-05-07 14:45 -31.12926 22.15951 28735 ft 424 kts 229°
2026-05-07 14:46 -31.14942 22.13431 28461 ft 425 kts 229°
2026-05-07 14:46 -31.16964 22.10902 28197 ft 426 kts 229°
2026-05-07 14:46 -31.18993 22.08364 27939 ft 427 kts 229°
2026-05-07 14:46 -31.21028 22.05815 27671 ft 428 kts 229°
2026-05-07 14:47 -31.23062 22.03267 27407 ft 430 kts 229°
2026-05-07 14:47 -31.25108 22.00702 27158 ft 431 kts 229°
2026-05-07 14:47 -31.27151 21.98138 26896 ft 432 kts 229°
2026-05-07 14:47 -31.29209 21.95555 26640 ft 432 kts 229°
2026-05-07 14:48 -31.31253 21.92987 26401 ft 430 kts 229°
2026-05-07 14:48 -31.33294 21.90421 26160 ft 429 kts 229°
2026-05-07 14:48 -31.35298 21.87900 25910 ft 428 kts 229°
2026-05-07 14:48 -31.37326 21.85347 25657 ft 427 kts 229°
2026-05-07 14:49 -31.39355 21.82790 25423 ft 426 kts 229°
2026-05-07 14:49 -31.41374 21.80245 25178 ft 425 kts 229°
2026-05-07 14:49 -31.43385 21.77708 24943 ft 424 kts 229°
2026-05-07 14:49 -31.45392 21.75173 24705 ft 423 kts 229°
2026-05-07 14:50 -31.47396 21.72642 24469 ft 422 kts 229°
2026-05-07 14:50 -31.49389 21.70122 24237 ft 421 kts 229°
2026-05-07 14:50 -31.51378 21.67606 24004 ft 420 kts 229°
2026-05-07 14:50 -31.53365 21.65090 23769 ft 419 kts 229°
2026-05-07 14:51 -31.55351 21.62574 23509 ft 418 kts 229°
2026-05-07 14:51 -31.57301 21.60102 23235 ft 417 kts 228°
2026-05-07 14:51 -31.59276 21.57596 22953 ft 416 kts 228°
2026-05-07 14:51 -31.61239 21.55103 22695 ft 414 kts 228°
2026-05-07 14:52 -31.63191 21.52623 22420 ft 413 kts 228°
2026-05-07 14:52 -31.65139 21.50147 22165 ft 412 kts 228°
2026-05-07 14:52 -31.67080 21.47678 21898 ft 410 kts 228°
2026-05-07 14:52 -31.69022 21.45207 21647 ft 409 kts 228°
2026-05-07 14:53 -31.70946 21.42756 21391 ft 408 kts 228°
2026-05-07 14:53 -31.72849 21.40330 21130 ft 407 kts 228°
2026-05-07 14:53 -31.74800 21.37842 20867 ft 406 kts 227°
2026-05-07 14:53 -31.76715 21.35398 20629 ft 405 kts 227°
2026-05-07 14:54 -31.78623 21.32962 20381 ft 404 kts 227°
2026-05-07 14:54 -31.80525 21.30532 20122 ft 402 kts 227°
2026-05-07 14:54 -31.82421 21.28107 19890 ft 401 kts 227°
2026-05-07 14:54 -31.84310 21.25690 19640 ft 400 kts 227°
2026-05-07 14:55 -31.86193 21.23280 19413 ft 399 kts 227°
2026-05-07 14:55 -31.88069 21.20876 19173 ft 398 kts 227°
2026-05-07 14:55 -31.89945 21.18472 18942 ft 397 kts 227°
2026-05-07 14:55 -31.91816 21.16071 18703 ft 396 kts 227°
2026-05-07 14:56 -31.93679 21.13680 18464 ft 395 kts 227°
2026-05-07 14:56 -31.95514 21.11323 18214 ft 394 kts 227°
2026-05-07 14:56 -31.97366 21.08943 17943 ft 393 kts 227°
2026-05-07 14:56 -31.99214 21.06567 17680 ft 392 kts 227°
2026-05-07 14:57 -32.01050 21.04205 17418 ft 390 kts 227°
2026-05-07 14:57 -32.02887 21.01840 17167 ft 389 kts 227°
2026-05-07 14:57 -32.04713 20.99488 16900 ft 388 kts 227°
2026-05-07 14:57 -32.06542 20.97129 16636 ft 387 kts 227°
2026-05-07 14:58 -32.08247 20.94928 16403 ft 385 kts 227°
2026-05-07 14:58 -32.10057 20.92591 16158 ft 384 kts 226°
2026-05-07 14:58 -32.11859 20.90264 15900 ft 383 kts 226°
2026-05-07 14:58 -32.13655 20.87942 15649 ft 382 kts 226°
2026-05-07 14:59 -32.15444 20.85630 15410 ft 381 kts 226°
2026-05-07 14:59 -32.17204 20.83351 15157 ft 380 kts 226°
2026-05-07 14:59 -32.18984 20.81045 14910 ft 379 kts 226°
2026-05-07 14:59 -32.20758 20.78746 14685 ft 378 kts 226°
2026-05-07 15:00 -32.22527 20.76453 14441 ft 377 kts 226°
2026-05-07 15:00 -32.24292 20.74162 14193 ft 376 kts 226°
2026-05-07 15:00 -32.26054 20.71875 13956 ft 375 kts 226°
2026-05-07 15:00 -32.27808 20.69597 13710 ft 374 kts 226°
2026-05-07 15:01 -32.29558 20.67323 13438 ft 373 kts 226°
2026-05-07 15:01 -32.31306 20.65050 13173 ft 372 kts 226°
2026-05-07 15:01 -32.33046 20.62786 12910 ft 371 kts 226°
2026-05-07 15:01 -32.34781 20.60527 12649 ft 370 kts 226°
2026-05-07 15:02 -32.36510 20.58274 12388 ft 369 kts 226°
2026-05-07 15:02 -32.38235 20.56023 12133 ft 368 kts 226°
2026-05-07 15:02 -32.39956 20.53778 11881 ft 367 kts 226°
2026-05-07 15:02 -32.41678 20.51530 11629 ft 366 kts 226°
2026-05-07 15:03 -32.43390 20.49295 11381 ft 365 kts 226°
2026-05-07 15:03 -32.45072 20.47095 11222 ft 364 kts 226°
2026-05-07 15:03 -32.46777 20.44864 11243 ft 365 kts 226°
2026-05-07 15:03 -32.48485 20.42629 11250 ft 365 kts 226°
2026-05-07 15:04 -32.50194 20.40391 11249 ft 365 kts 226°
2026-05-07 15:04 -32.51898 20.38158 11252 ft 366 kts 226°
2026-05-07 15:04 -32.53612 20.35911 11263 ft 369 kts 226°
2026-05-07 15:04 -32.55363 20.33614 11725 ft 378 kts 226°
2026-05-07 15:05 -32.57119 20.31307 12811 ft 373 kts 226°
2026-05-07 15:05 -32.58860 20.29017 13817 ft 374 kts 226°
2026-05-07 15:05 -32.60623 20.26702 14548 ft 380 kts 226°
2026-05-07 15:05 -32.62402 20.24367 15248 ft 384 kts 226°
2026-05-07 15:06 -32.64203 20.22002 15996 ft 387 kts 226°
2026-05-07 15:06 -32.66014 20.19619 16750 ft 390 kts 226°
2026-05-07 15:06 -32.67844 20.17208 17514 ft 394 kts 227°
2026-05-07 15:06 -32.69686 20.14781 18234 ft 397 kts 227°
2026-05-07 15:07 -32.71543 20.12331 18888 ft 401 kts 227°
2026-05-07 15:07 -32.73395 20.09886 19509 ft 404 kts 227°
2026-05-07 15:07 -32.75287 20.07388 19970 ft 406 kts 227°
2026-05-07 15:07 -32.77193 20.04866 20136 ft 406 kts 227°
2026-05-07 15:08 -32.79079 20.02367 20132 ft 406 kts 228°
2026-05-07 15:08 -32.80970 19.99861 20138 ft 406 kts 228°
2026-05-07 15:08 -32.82856 19.97360 20139 ft 406 kts 227°
2026-05-07 15:08 -32.84110 19.95696 20151 ft 405 kts 227°
2026-05-07 15:09 -32.85992 19.93199 20148 ft 405 kts 228°
2026-05-07 15:09 -32.87873 19.90702 20140 ft 405 kts 228°
2026-05-07 15:09 -32.89759 19.88197 20151 ft 406 kts 228°
2026-05-07 15:09 -32.92255 19.84877 20140 ft 406 kts 228°
2026-05-07 15:10 -32.94139 19.82370 20145 ft 406 kts 228°
2026-05-07 15:10 -32.95409 19.80678 20147 ft 406 kts 228°
2026-05-07 15:10 -32.97269 19.78199 20157 ft 406 kts 228°
2026-05-07 15:10 -32.99155 19.75683 20153 ft 406 kts 228°
2026-05-07 15:11 -33.01038 19.73170 20150 ft 406 kts 228°
2026-05-07 15:11 -33.02919 19.70659 20153 ft 406 kts 228°
2026-05-07 15:11 -33.04803 19.68140 20158 ft 406 kts 228°
2026-05-07 15:11 -33.06679 19.65626 20152 ft 406 kts 228°
2026-05-07 15:12 -33.08558 19.63106 20154 ft 406 kts 228°
2026-05-07 15:12 -33.10437 19.60583 20164 ft 406 kts 228°
2026-05-07 15:12 -33.12318 19.58055 20155 ft 406 kts 228°
2026-05-07 15:12 -33.14198 19.55526 20159 ft 406 kts 228°
2026-05-07 15:13 -33.16077 19.52997 20163 ft 406 kts 228°
2026-05-07 15:13 -33.17937 19.50492 20164 ft 406 kts 228°
2026-05-07 15:13 -33.19835 19.47933 19984 ft 401 kts 228°
2026-05-07 15:13 -33.21660 19.45469 19348 ft 402 kts 228°
2026-05-07 15:14 -33.23538 19.42930 18723 ft 402 kts 227°
2026-05-07 15:14 -33.25364 19.40461 18199 ft 399 kts 227°
2026-05-07 15:14 -33.27202 19.37977 17577 ft 397 kts 227°
2026-05-07 15:14 -33.29029 19.35506 17009 ft 394 kts 227°
2026-05-07 15:15 -33.30836 19.33059 16482 ft 391 kts 227°
2026-05-07 15:15 -33.32636 19.30620 15922 ft 389 kts 227°
2026-05-07 15:15 -33.34449 19.28161 15344 ft 388 kts 227°
2026-05-07 15:15 -33.36230 19.25745 14843 ft 386 kts 227°
2026-05-07 15:16 -33.37993 19.23349 14392 ft 382 kts 227°
2026-05-07 15:16 -33.39747 19.20970 13926 ft 378 kts 226°
2026-05-07 15:16 -33.41560 19.18696 13453 ft 374 kts 223°
2026-05-07 15:16 -33.43457 19.16591 13003 ft 370 kts 220°
2026-05-07 15:17 -33.45387 19.14577 12567 ft 366 kts 219°
2026-05-07 15:17 -33.47303 19.12596 12239 ft 359 kts 219°
2026-05-07 15:17 -33.49129 19.10705 12007 ft 340 kts 219°
2026-05-07 15:17 -33.50847 19.08922 11934 ft 313 kts 219°
2026-05-07 15:18 -33.52427 19.07281 11901 ft 290 kts 219°
2026-05-07 15:18 -33.53927 19.05721 11826 ft 280 kts 219°
2026-05-07 15:18 -33.55382 19.04210 11724 ft 273 kts 219°
2026-05-07 15:18 -33.56805 19.02730 11629 ft 269 kts 219°
2026-05-07 15:19 -33.58212 19.01268 11548 ft 267 kts 219°
2026-05-07 15:19 -33.59613 18.99810 11441 ft 266 kts 219°
2026-05-07 15:19 -33.61013 18.98349 11127 ft 267 kts 219°
2026-05-07 15:19 -33.62394 18.96904 10820 ft 267 kts 219°
2026-05-07 15:20 -33.63803 18.95428 10517 ft 267 kts 219°
2026-05-07 15:20 -33.65202 18.93961 10225 ft 266 kts 219°
2026-05-07 15:20 -33.66608 18.92487 9891 ft 267 kts 219°
2026-05-07 15:20 -33.68011 18.91018 9574 ft 266 kts 219°
2026-05-07 15:21 -33.69404 18.89555 9266 ft 265 kts 219°
2026-05-07 15:21 -33.70798 18.88092 8959 ft 264 kts 219°
2026-05-07 15:21 -33.72182 18.86637 8675 ft 263 kts 219°
2026-05-07 15:21 -33.73560 18.85189 8393 ft 262 kts 219°
2026-05-07 15:22 -33.74932 18.83745 8084 ft 261 kts 219°
2026-05-07 15:22 -33.76300 18.82306 7800 ft 261 kts 219°
2026-05-07 15:22 -33.77674 18.80860 7495 ft 261 kts 219°
2026-05-07 15:22 -33.79025 18.79438 7185 ft 261 kts 219°
2026-05-07 15:23 -33.80375 18.78014 7085 ft 251 kts 219°
2026-05-07 15:23 -33.81654 18.76663 7078 ft 237 kts 219°
2026-05-07 15:23 -33.82880 18.75368 7057 ft 228 kts 219°
2026-05-07 15:23 -33.83908 18.73924 6961 ft 231 kts 244°
2026-05-07 15:24 -33.84161 18.72039 6759 ft 230 kts 278°
2026-05-07 15:24 -33.83541 18.70263 6538 ft 235 kts 311°
2026-05-07 15:24 -33.82239 18.69143 6219 ft 236 kts 342°
2026-05-07 15:24 -33.80676 18.68554 5961 ft 234 kts 344°
2026-05-07 15:25 -33.79129 18.67978 5694 ft 232 kts 344°
2026-05-07 15:25 -33.77590 18.67403 5475 ft 228 kts 343°
2026-05-07 15:25 -33.76093 18.66845 5230 ft 222 kts 344°
2026-05-07 15:25 -33.74626 18.66296 4890 ft 219 kts 343°
2026-05-07 15:26 -33.73187 18.65761 4567 ft 214 kts 344°
2026-05-07 15:26 -33.71779 18.65236 4255 ft 210 kts 343°
2026-05-07 15:26 -33.70403 18.64722 3912 ft 205 kts 343°
2026-05-07 15:26 -33.69050 18.64189 3553 ft 202 kts 338°
2026-05-07 15:27 -33.67981 18.63171 3183 ft 195 kts 301°
2026-05-07 15:27 -33.67716 18.61688 2956 ft 171 kts 254°
2026-05-07 15:27 -33.68241 18.60536 2958 ft 157 kts 225°
2026-05-07 15:27 -33.69019 18.59599 2980 ft 155 kts 220°
2026-05-07 15:28 -33.69807 18.58710 2982 ft 155 kts 220°
2026-05-07 15:28 -33.70607 18.57801 2976 ft 155 kts 220°
2026-05-07 15:28 -33.71399 18.56893 2995 ft 154 kts 221°
2026-05-07 15:28 -33.72177 18.55991 2982 ft 154 kts 221°
2026-05-07 15:29 -33.72948 18.55093 2996 ft 154 kts 221°
2026-05-07 15:29 -33.73760 18.54256 2999 ft 152 kts 208°
2026-05-07 15:29 -33.74724 18.53768 2996 ft 149 kts 190°
2026-05-07 15:29 -33.75744 18.53688 2999 ft 146 kts 172°
2026-05-07 15:30 -33.76741 18.53903 2988 ft 146 kts 166°
2026-05-07 15:30 -33.77725 18.54191 2995 ft 146 kts 165°
2026-05-07 15:30 -33.78711 18.54498 2998 ft 145 kts 165°
2026-05-07 15:30 -33.79690 18.54808 2994 ft 146 kts 165°
2026-05-07 15:31 -33.80673 18.55121 3000 ft 146 kts 164°
2026-05-07 15:31 -33.81655 18.55435 2977 ft 145 kts 164°
2026-05-07 15:31 -33.82637 18.55749 2997 ft 147 kts 164°
2026-05-07 15:31 -33.83627 18.56066 2845 ft 146 kts 164°
2026-05-07 15:32 -33.84643 18.56391 2620 ft 144 kts 165°
2026-05-07 15:32 -33.85610 18.56699 2418 ft 144 kts 164°
2026-05-07 15:32 -33.86578 18.57009 2222 ft 144 kts 165°
2026-05-07 15:32 -33.87530 18.57313 2014 ft 142 kts 165°
2026-05-07 15:33 -33.88483 18.57616 1806 ft 141 kts 164°
2026-05-07 15:33 -33.89430 18.57919 1599 ft 141 kts 164°
2026-05-07 15:33 -33.90383 18.58232 1386 ft 142 kts 163°
2026-05-07 15:33 -33.91333 18.58562 1197 ft 142 kts 165°
2026-05-07 15:34 -33.92281 18.58875 1001 ft 140 kts 166°
2026-05-07 15:34 -33.93223 18.59154 751 ft 139 kts 166°
2026-05-07 15:34 -33.94146 18.59441 583 ft 137 kts 167°
2026-05-07 15:34 -33.95048 18.59736 384 ft 136 kts 169°
2026-05-07 15:35 -33.95960 18.60006 205 ft 135 kts 166°
2026-05-07 15:35 -33.96735 18.60244 169 ft 73 kts 166°
2026-05-07 15:35 -33.97274 18.60412 161 ft 103 kts 165°
2026-05-07 15:35 -33.97836 18.60590 163 ft 67 kts 165°
2026-05-07 15:36 -33.98273 18.60726 162 ft 62 kts 165°
2026-05-07 15:36 -33.98589 18.60829 160 ft 34 kts 165°
2026-05-07 15:36 -33.98753 18.60838 164 ft 19 kts 219°
2026-05-07 15:36 -33.98798 18.60709 164 ft 16 kts 279°
2026-05-07 15:37 -33.98713 18.60620 165 ft 19 kts 340°
2026-05-07 15:37 -33.98581 18.60561 165 ft 22 kts 341°
2026-05-07 15:37 -33.98429 18.60496 165 ft 24 kts 341°
2026-05-07 15:37 -33.98259 18.60423 165 ft 27 kts 341°
2026-05-07 15:38 -33.98118 18.60363 165 ft 22 kts 340°
2026-05-07 15:38 -33.97991 18.60309 165 ft 12 kts 340°
2026-05-07 15:38 -33.97901 18.60270 165 ft 16 kts 340°
2026-05-07 15:38 -33.97784 18.60220 165 ft 20 kts 340°
2026-05-07 15:39 -33.97690 18.60179 165 ft 15 kts 340°
2026-05-07 15:39 -33.97595 18.60136 165 ft 16 kts 336°
2026-05-07 15:39 -33.97478 18.60076 165 ft 20 kts 341°
2026-05-07 15:39 -33.97372 18.60040 165 ft 13 kts 345°
2026-05-07 15:40 -33.97313 18.60021 165 ft 8 kts 345°
2026-05-07 15:40 -33.97282 18.60011 165 ft 4 kts 346°
2026-05-07 15:40 -33.97260 18.60013 165 ft 3 kts 23°
2026-05-07 15:40 -33.97246 18.60036 165 ft 5 kts 68°
2026-05-07 15:41 -33.97239 18.60060 165 ft 1 kts 72°
2026-05-07 15:41 -33.97238 18.60063 165 ft 0 kts 72°